CZ-3C DEB, 39348

Orbit data source: Space-Track

CZ-3C DEB, 39348 is space debris in HEO originally from a launch on Sun, 31 Oct 2010 UTC launched from the Xichang Space Center, China (XSC). Debris objects in space refer to the collection of defunct objects orbiting the Earth. Examples of debris include non-operational satellites, rocket bodies, and fragments generated from explosions, collisions, or faulty payload assembly.

Loading next visibility...
Identifier
39348, 2010-057N
Orbit
HEO
Country
Flag of CNCN / PRC
Related business
Manufacturer
CALT
Mission
Spacecraft
Bus & Motor
Unknown
Mass
Unknown
Launch date (UTC)
2010-10-31 (15 years ago)
Launch vehicle
Unknown
Launch site
Xichang Space Center, China (XSC)
Object type
Payload
Rocket body
Debris
Shape & HBR
Unknown shape, 2.1 m
Radar Cross Section
Large (>1 m²)

Expand to show TLE details & history
Last TLE update: 2 days ago

TLE from 2 days ago
0 CZ-3C DEB
1 39348U 10057N   26066.85874172  .00000299  00000-0  15651-2 0  9992
2 39348  20.7007   4.0620 7229269 328.5905   3.7104  2.26152168102108
Epoch: 2026-03-07T20:36Z
TLE epoch observation values (Epoch: 2026-03-07T20:36:35.284Z)
Latitude
-0.00017°
Longitude
-110.65562°
Altitude
837.635 km
Speed
9.706 km/s
True Right ascension
00h 16m 15s
True Declination
0° 00' 01"
Sunlit
Object was in daylight at epoch
Visualization orbit readout
Latitude
Unknown
Longitude
Unknown
Altitude
Unknown
Speed
Unknown
Apparent Right ascension
Unknown
Apparent Declination
Unknown
Sunlit
N/A
Visualization observer readout
Local Sidereal Time
15:31:53
Azimuth
Unknown
Elevation
Unknown
Doppler factor
Unknown
Orbital elements
Apogee altitude
35,870.579 km
Perigee altitude
416.105 km
Semi-major axis
24,521.479 km
Eccentricity
0.72293
Inclination
20.7007°
RAAN
4.062°
Arg. of periapsis
328.5905°
True anomaly
31.94276°
Mean anomaly
3.7104°
Eccentric anomaly
13.09475°
Mean motion
0.56523 °/min
Orbital period
636.91 mins
BSTAR
0.0015651
Loading maneuver chart data...
Computing Atmospheric mass density...
Loading historical data...
Loading historical data...
Loading historical data...
Loading historical data...
Loading historical data...
Loading historical data...
Loading historical data...

Documentation

Showing up to 5 results
|